[[{"header":{"parameterUnit":"m.s-1","parameterCategory":2,"la1":30.2991,"la2":30.254,"lo1":-89.0895,"lo2":-89.0444,"dy":0.0017,"dx":0.0017,"nx":28,"ny":28,"refTime":"2025-07-02T21:00:00:Z","depth":"0","parameterNumber":2,"parameterNumberName":"U-component_of_CURRENTS"},"data":[0,0,0,0,0,0,0,0,0,0,0,0,0,0,0,0,0,0,0,0,0,0,0,0,0,0,0,0,0,0,0,0,0,0,0,0,0,0,0,0,0,0,0,0,0,0,0,0,0,0,0,0,0,0,0,0,0,0,0.2034,0.2035,0,0.208,0.208,0.2081,0.2085,0.2084,0.2084,0.2083,0.2136,0.2138,0.2139,0,0,0,0,0,0,0,0,0,0,0,0,0,0.1953,0.1954,0.2034,0.2035,0.2036,0.2079,0.208,0.2081,0.2085,0.2084,0.2083,0.2083,0.2135,0.2137,0.214,0,0,0,0,0,0,0,0,0,0,0,0,0,0.1992,0.1955,0.2034,0.2043,0.2044,0.2079,0.208,0.2081,0.2085,0.2084,0.2083,0.2083,0.2134,0.2137,0.214,0.2172,0,0,0.2148,0.215,0,0,0,0,0,0,0,0,0.199,0.1995,0.2041,0.2042,0.2044,0.2076,0.2071,0.2112,0.2085,0.2069,0.2083,0.2082,0.2117,0.2121,0.2131,0.2174,0.2177,0.2149,0.215,0.2152,0.2152,0,0,0,0,0,0,0,0.1987,0.1993,0.2052,0.2042,0.2043,0.2045,0.2049,0.2078,0.2097,0.2071,0.2071,0.2076,0.2117,0.2128,0.2132,0.2177,0.2149,0.2151,0.2153,0.2154,0.2278,0.228,0,0,0,0,0,0,0.1983,0.1991,0.2051,0.2054,0.2014,0.2047,0.2052,0.2066,0.2096,0.21,0.2077,0.2076,0.2124,0.2129,0.2134,0.2192,0.2151,0.2154,0.2156,0.2277,0.2279,0.2281,0,0,0,0,0,0,0.1981,0.1988,0.2049,0.2022,0.203,0.2049,0.2065,0.2067,0.2079,0.2101,0.2105,0.2085,0.2124,0.213,0.2172,0.2193,0.2155,0.2158,0.2275,0.2277,0.228,0.2295,0,0,0,0,0,0,0.1979,0.1987,0.1999,0.2023,0.2032,0.208,0.2065,0.2069,0.2083,0.2082,0.2109,0.2113,0.2124,0.2168,0.2175,0.2196,0.216,0.2273,0.2276,0.2279,0.2292,0.2298,0.2302,0,0,0,0,0,0.1976,0.2008,0.1999,0.2006,0.2046,0.2081,0.2086,0.2096,0.2084,0.21,0.2118,0.2112,0.2192,0.2172,0.218,0.2202,0.2271,0.2275,0.2279,0.229,0.2297,0.2302,0,0,0,0,0,0,0.199,0.2012,0.2003,0.2042,0.2057,0.2081,0.2101,0.2099,0.2125,0.2124,0.2135,0.2142,0.2186,0.2198,0.2174,0.2249,0.2231,0.2236,0.2237,0.2243,0.2248,0.2243,0.2162,0,0,0,0,0,0.1993,0.2016,0.2033,0.2063,0.2071,0.2081,0.2095,0.2099,0.2123,0.2133,0.2148,0.2174,0.221,0.2227,0.2258,0.2299,0.2364,0.232,0.2325,0.2329,0.2332,0.2442,0.2457,0.2293,0.2293,0.2293,0,0,0.2008,0.2021,0.2035,0.2065,0.2077,0.2099,0.2089,0.2116,0.213,0.2137,0.2167,0.2192,0.2226,0.2272,0.2293,0.2282,0.2421,0.2333,0.2336,0.2337,0.2447,0.2464,0.2478,0.2295,0.2295,0.2294,0,0,0.2049,0.2057,0.2086,0.2098,0.2115,0.2121,0.2127,0.2148,0.2153,0.2187,0.2198,0.2239,0.228,0.2315,0.2336,0.239,0.2443,0.2396,0.2415,0.2522,0.2537,0.255,0.2701,0.2727,0.2397,0.2397,0.2397,0,0.2069,0.2097,0.2101,0.2126,0.2135,0.2129,0.2154,0.2166,0.2196,0.2213,0.2199,0.2288,0.2304,0.2378,0.2387,0.24,0.2484,0.2385,0.2529,0.2543,0.2556,0.2707,0.2736,0.2398,0.2398,0.2398,0.2398,0,0.2125,0.214,0.216,0.218,0.2192,0.2217,0.222,0.2236,0.2233,0.2249,0.231,0.2344,0.2399,0.2409,0.2407,0.2508,0.2549,0.2523,0.2511,0.2574,0.273,0.276,0.24,0.2399,0.2399,0.2399,0,0,0.2211,0.2199,0.2208,0.2202,0.2217,0.2233,0.2257,0.2286,0.2316,0.2337,0.2398,0.2437,0.2454,0.248,0.2498,0.257,0.2738,0.2578,0.2584,0.2725,0.3026,0.3092,0.3132,0.2738,0.2742,0.2745,0.3114,0,0.2258,0.228,0.2271,0.2294,0.2305,0.2295,0.2319,0.2341,0.2365,0.2425,0.246,0.2526,0.2483,0.2524,0.2588,0.2701,0.281,0.2644,0.2947,0.2957,0.3003,0.3165,0.3055,0.3376,0.3144,0.3149,0.3153,0,0.2338,0.2327,0.2345,0.2328,0.2335,0.2346,0.238,0.2404,0.2475,0.2502,0.2566,0.2603,0.2715,0.2665,0.2902,0.2802,0.2916,0.2998,0.3014,0.3084,0.3077,0.3268,0.344,0.3244,0.3199,0.3195,0.3192,0,0.2399,0.2393,0.2392,0.239,0.2377,0.2383,0.2383,0.2433,0.247,0.2569,0.2628,0.2744,0.2837,0.297,0.3111,0.3032,0.3396,0.3317,0.3502,0.351,0.348,0.3478,0.3489,0.3512,0.3511,0.351,0.3509,0,0.2468,0.2478,0.2409,0.2415,0.243,0.2406,0.2455,0.2481,0.2547,0.2636,0.2672,0.2793,0.2913,0.3107,0.3209,0.3483,0.3495,0.3564,0.3621,0.3489,0.3483,0.3359,0.3242,0.3524,0.3521,0.3518,0.3515,0,0.2562,0.2516,0.2522,0.2476,0.2465,0.2481,0.2485,0.2531,0.2577,0.2706,0.2747,0.2895,0.3161,0.3314,0.3592,0.3646,0.3772,0.3958,0.382,0.3852,0.3799,0.3689,0.373,0.3638,0.4242,0.4246,0.4249,0,0.261,0.2615,0.2574,0.2569,0.2548,0.2547,0.2563,0.257,0.2624,0.2786,0.2871,0.3127,0.3318,0.375,0.3928,0.4206,0.3972,0.424,0.4046,0.3837,0.3757,0.3545,0.3444,0.4045,0.4047,0.4048,0.4049,0,0.2691,0.2678,0.2659,0.2647,0.2641,0.2647,0.2657,0.2698,0.275,0.2854,0.3045,0.3202,0.3604,0.383,0.4162,0.4298,0.3989,0.4275,0.4079,0.3644,0.3395,0.3318,0.3783,0.4059,0.4058,0.4057,0.4057,0.4056,0.2741,0.2746,0.2703,0.2698,0.2703,0.2713,0.2711,0.2754,0.2834,0.2952,0.3138,0.3326,0.3608,0.4062,0.4183,0.4223,0.415,0.409,0.4004,0.3831,0.3623,0.4148,0.4451,0.4453,0.4454,0.4454,0.4455,0,0.274,0.2731,0.2743,0.2706,0.271,0.271,0.2745,0.2735,0.2811,0.298,0.3127,0.3363,0.3607,0.3807,0.3976,0.3887,0.3719,0.378,0.3381,0.332,0.3828,0.3691,0.3815,0.3815,0.3815,0.3816,0.3816,0.3816,0.2725,0.2707,0.2703,0.2679,0.2673,0.2643,0.2649,0.2675,0.2754,0.2859,0.2953,0.3079,0.3284,0.3471,0.3453,0.3435,0.3103,0.3069,0.3004,0.3245,0.3261,0.3276,0.3116,0.3117,0.3116,0.2366,0.236,0.2355]},{"header":{"parameterUnit":"m.s-1","parameterCategory":2,"la1":30.2991,"la2":30.254,"lo1":-89.0895,"lo2":-89.0444,"dy":0.0017,"dx":0.0017,"nx":28,"ny":28,"refTime":"2025-07-02T21:00:00:Z","depth":"0","parameterNumber":3,"parameterNumberName":"V-component_of_CURRENTS"},"data":[0,0,0,0,0,0,0,0,0,0,0,0,0,0,0,0,0,0,0,0,0,0,0,0,0,0,0,0,0,0,0,0,0,0,0,0,0,0,0,0,0,0,0,0,0,0,0,0,0,0,0,0,0,0,0,0,0,0,-0.0032,-0.0032,0,-0.0099,-0.01,-0.01,-0.0143,-0.0144,-0.0144,-0.0144,-0.0218,-0.022,-0.0221,0,0,0,0,0,0,0,0,0,0,0,0,0,0.009,0.0088,-0.0032,-0.0033,-0.0034,-0.0099,-0.01,-0.01,-0.0143,-0.0144,-0.0144,-0.0144,-0.0218,-0.0219,-0.0221,0,0,0,0,0,0,0,0,0,0,0,0,0,0.0032,0.0087,-0.0031,-0.0063,-0.0067,-0.0099,-0.01,-0.0101,-0.0143,-0.0144,-0.0144,-0.0145,-0.0217,-0.0219,-0.0222,-0.0226,0,0,-0.0229,-0.023,0,0,0,0,0,0,0,0,0.0036,0.0028,-0.0058,-0.0061,-0.0065,-0.0114,-0.0084,-0.0143,-0.0143,-0.0113,-0.0144,-0.0145,-0.0184,-0.0189,-0.0199,-0.023,-0.0233,-0.0229,-0.0231,-0.0232,-0.0233,0,0,0,0,0,0,0,0.004,0.0031,-0.0057,-0.0059,-0.0063,-0.0064,-0.0073,-0.0095,-0.0144,-0.0116,-0.0119,-0.0128,-0.0186,-0.0197,-0.0201,-0.0234,-0.0229,-0.0232,-0.0233,-0.0234,-0.0259,-0.0258,0,0,0,0,0,0,0.0044,0.0034,-0.0055,-0.0059,-0.0016,-0.0066,-0.0076,-0.0097,-0.0144,-0.0152,-0.0128,-0.013,-0.0192,-0.0198,-0.0204,-0.0192,-0.0232,-0.0234,-0.0236,-0.026,-0.0259,-0.0258,0,0,0,0,0,0,0.0047,0.0037,-0.0052,-0.0014,-0.0025,-0.0068,-0.0091,-0.0098,-0.0109,-0.0153,-0.0161,-0.0132,-0.0193,-0.0201,-0.0216,-0.0196,-0.0235,-0.0238,-0.0261,-0.0259,-0.0258,-0.018,0,0,0,0,0,0,0.0051,0.0038,0.0032,-0.0014,-0.0028,-0.0062,-0.0091,-0.0099,-0.0115,-0.0118,-0.0159,-0.0167,-0.0194,-0.0212,-0.0219,-0.02,-0.0239,-0.0262,-0.026,-0.0259,-0.0184,-0.0177,-0.017,0,0,0,0,0,0.0055,0.0052,0.0031,0.0021,-0.0038,-0.0061,-0.0067,-0.0098,-0.0114,-0.0112,-0.0139,-0.0165,-0.0207,-0.0214,-0.0221,-0.0203,-0.0262,-0.0261,-0.0259,-0.0187,-0.0178,-0.0171,0,0,0,0,0,0,0.0116,0.0046,0.0023,0.0002,-0.0025,-0.0069,-0.0069,-0.0093,-0.0114,-0.0117,-0.0159,-0.0167,-0.0172,-0.0199,-0.0205,-0.0205,-0.0238,-0.0237,-0.018,-0.0172,-0.0166,-0.015,-0.0242,0,0,0,0,0,0.0122,0.0094,0.0041,0.0029,0.0014,-0.0027,-0.0039,-0.0062,-0.009,-0.01,-0.0129,-0.0155,-0.017,-0.018,-0.0201,-0.0203,-0.0214,-0.0196,-0.0189,-0.0183,-0.0175,-0.0166,-0.0157,-0.0252,-0.0252,-0.0252,0,0,0.0146,0.0103,0.009,0.004,0.0015,0.0002,-0.0035,-0.005,-0.0053,-0.0104,-0.0111,-0.0134,-0.0166,-0.0166,-0.017,-0.0186,-0.0161,-0.018,-0.0175,-0.0171,-0.0163,-0.0154,-0.0146,-0.0251,-0.0251,-0.0251,0,0,0.0181,0.0139,0.0126,0.0101,0.006,0.0033,0.0031,-0.0012,-0.0023,-0.0036,-0.0067,-0.0073,-0.0109,-0.0117,-0.0128,-0.0096,-0.0126,-0.0107,-0.006,-0.0051,-0.0042,-0.0036,-0.0032,-0.0025,-0.0103,-0.0103,-0.0103,0,0.0216,0.0181,0.0128,0.0112,0.0098,0.005,0.0048,0.0032,-0.0006,-0.0005,-0.0028,-0.0051,-0.0081,-0.0066,-0.0059,-0.0079,-0.0084,-0.0087,-0.004,-0.0034,-0.0028,-0.0026,-0.002,-0.0099,-0.0099,-0.01,-0.01,0,0.0234,0.0211,0.0208,0.0162,0.0146,0.0139,0.0101,0.0094,0.0071,0.0056,0.0062,0.0031,0.0019,0.0012,-0.0019,0.0012,-0.0008,-0.0031,-0.0057,-0.0013,-0.0015,-0.0009,-0.0093,-0.0094,-0.0096,-0.0097,0,0,0.0296,0.0232,0.0231,0.0217,0.0169,0.0159,0.0158,0.0146,0.0163,0.0134,0.0161,0.0134,0.0121,0.0108,0.0081,0.0086,0.0117,0.0045,0.0044,0.0056,0.0135,0.0141,0.0146,0.0102,0.0103,0.0104,0.012,0,0.0328,0.031,0.0269,0.027,0.0257,0.0217,0.0224,0.0211,0.0204,0.0221,0.0202,0.0216,0.0157,0.0166,0.0159,0.0133,0.0134,0.0115,0.0085,0.0084,0.0089,0.0154,0.016,0.0177,0.0125,0.0126,0.0126,0,0.035,0.0333,0.033,0.0309,0.0303,0.0303,0.0307,0.0311,0.0321,0.0322,0.033,0.0313,0.0322,0.0267,0.0246,0.0236,0.0189,0.0163,0.0163,0.0144,0.01,0.0122,0.0188,0.001,0.0134,0.0133,0.0133,0,0.0396,0.0377,0.0375,0.0364,0.0336,0.0342,0.0341,0.0346,0.0372,0.0399,0.0435,0.0421,0.0447,0.0385,0.0324,0.0285,0.0308,0.0245,0.0206,0.0205,0.0193,0.019,0.009,0.023,0.023,0.023,0.023,0,0.042,0.0421,0.0398,0.0392,0.042,0.0388,0.0433,0.0433,0.0468,0.0535,0.0498,0.0566,0.0479,0.0476,0.0378,0.0331,0.035,0.0235,0.022,0.022,0.0219,0.0048,-0.0041,0.0231,0.023,0.023,0.023,0,0.0443,0.0425,0.0428,0.0422,0.043,0.0449,0.0487,0.0531,0.0556,0.0647,0.0667,0.0693,0.0705,0.0614,0.0549,0.0432,0.0291,0.0334,0.0342,0.0328,0.0097,0.0013,-0.0045,-0.0087,0.0282,0.0282,0.0283,0,0.044,0.0444,0.0458,0.0482,0.0477,0.0512,0.055,0.0572,0.0634,0.0742,0.0804,0.0849,0.0915,0.0823,0.0647,0.0502,0.0346,0.0372,0.0291,0.0107,0.0002,-0.0046,-0.0081,0.0303,0.0303,0.0303,0.0304,0,0.045,0.046,0.0469,0.0524,0.0563,0.0619,0.068,0.074,0.0804,0.0895,0.1037,0.1106,0.1047,0.0954,0.0752,0.0607,0.0267,0.0374,0.0186,0.0023,-0.0035,-0.009,0.0257,0.0307,0.0307,0.0307,0.0306,0.0306,0.0464,0.0488,0.052,0.0571,0.0634,0.073,0.0791,0.0887,0.1008,0.118,0.1227,0.1384,0.1196,0.0945,0.0719,0.0283,0.0305,0.0125,0.0044,0.0016,-0.004,0.0318,0.0348,0.0348,0.0348,0.0348,0.0348,0,0.0478,0.0517,0.0573,0.0644,0.0729,0.0754,0.0884,0.0969,0.1132,0.1339,0.1483,0.1519,0.1235,0.0892,0.0336,0.0007,-0.0112,-0.0184,-0.0283,-0.0299,0.0015,-0.0004,-0.005,-0.005,-0.005,-0.005,-0.0049,-0.0049,0.0487,0.054,0.0576,0.0712,0.0778,0.0899,0.0978,0.1126,0.1289,0.156,0.1713,0.181,0.1539,0.0507,-0.0208,-0.0369,-0.0595,-0.0614,-0.0713,-0.0568,-0.0547,-0.0527,-0.0569,-0.0732,-0.0733,-0.0985,-0.0988,-0.099]}],[{"header":{"parameterUnit":"m.s-1","parameterCategory":2,"la1":30.2991,"la2":30.254,"lo1":-89.0895,"lo2":-89.0444,"dy":0.0017,"dx":0.0017,"nx":28,"ny":28,"refTime":"2025-07-02T21:00:00:Z","depth":"2","parameterNumber":2,"parameterNumberName":"U-component_of_CURRENTS"},"data":[0,0,0,0,0,0,0,0,0,0,0,0,0,0,0,0,0,0,0,0,0,0,0,0,0,0,0,0,0,0,0,0,0,0,0,0,0,0,0,0,0,0,0,0,0,0,0,0,0,0,0,0,0,0,0,0,0,0,0.1205,0.1205,0,0.1222,0.1222,0.1222,0.1234,0.1234,0.1234,0.1235,0.124,0.124,0.124,0,0,0,0,0,0,0,0,0,0,0,0,0,0.1159,0.116,0.1204,0.1205,0.1205,0.1222,0.1222,0.1222,0.1234,0.1234,0.1234,0.1235,0.124,0.124,0.124,0,0,0,0,0,0,0,0,0,0,0,0,0,0.1176,0.116,0.1204,0.1215,0.1216,0.1222,0.1222,0.1222,0.1234,0.1234,0.1234,0.1235,0.124,0.124,0.124,0.1231,0,0,0.1239,0.1239,0,0,0,0,0,0,0,0,0.1175,0.1177,0.1213,0.1214,0.1215,0.1228,0.1208,0.1225,0.1234,0.1225,0.1235,0.1235,0.1236,0.1236,0.1236,0.1231,0.1231,0.1239,0.1239,0.1239,0.1239,0,0,0,0,0,0,0,0.1174,0.1177,0.1209,0.1213,0.1215,0.1211,0.1214,0.1211,0.1226,0.1225,0.1227,0.1232,0.1236,0.1236,0.1236,0.1231,0.1239,0.1239,0.1239,0.1239,0.1295,0.1297,0,0,0,0,0,0,0.1177,0.1176,0.1209,0.121,0.1198,0.1212,0.1215,0.1222,0.1226,0.1228,0.1232,0.1233,0.1236,0.1236,0.1236,0.1295,0.1239,0.1239,0.1239,0.1294,0.1296,0.1298,0,0,0,0,0,0,0.1176,0.118,0.1208,0.1195,0.1198,0.1213,0.122,0.1222,0.1232,0.1232,0.1233,0.1242,0.1236,0.1236,0.1257,0.1293,0.1239,0.1239,0.1292,0.1294,0.1297,0.1368,0,0,0,0,0,0,0.1174,0.1179,0.1186,0.1195,0.1199,0.1225,0.122,0.1222,0.1235,0.1237,0.124,0.1241,0.1236,0.1257,0.1257,0.1291,0.1238,0.129,0.1293,0.1296,0.1364,0.1373,0.138,0,0,0,0,0,0.1173,0.1184,0.1186,0.119,0.1208,0.1225,0.1227,0.1237,0.1236,0.1246,0.1255,0.1241,0.1276,0.1258,0.1257,0.1293,0.1288,0.1292,0.1296,0.136,0.1371,0.138,0,0,0,0,0,0,0.117,0.1187,0.1189,0.1205,0.1219,0.1228,0.1239,0.1242,0.1255,0.126,0.1254,0.1256,0.1291,0.1279,0.1259,0.1319,0.1283,0.1286,0.1332,0.1342,0.135,0.1368,0.1238,0,0,0,0,0,0.1172,0.1184,0.1199,0.1213,0.1221,0.123,0.1238,0.1246,0.1258,0.1265,0.1269,0.128,0.1302,0.1311,0.1321,0.1345,0.1377,0.137,0.1379,0.1386,0.1401,0.1475,0.1492,0.1309,0.1309,0.1309,0,0,0.1175,0.1186,0.1193,0.1213,0.1223,0.1247,0.1236,0.1256,0.1282,0.1263,0.1298,0.1306,0.1315,0.1353,0.1368,0.1349,0.146,0.139,0.1396,0.1408,0.1481,0.1499,0.1515,0.1312,0.1311,0.1311,0,0,0.1195,0.1199,0.1219,0.1233,0.1255,0.1263,0.1271,0.1289,0.1304,0.1332,0.1339,0.1374,0.1384,0.1415,0.1428,0.1486,0.1501,0.1485,0.1542,0.1615,0.1631,0.1645,0.1734,0.1755,0.149,0.149,0.149,0,0.1201,0.1226,0.1228,0.1253,0.1273,0.1273,0.1306,0.132,0.1344,0.1371,0.1354,0.1422,0.1421,0.1496,0.1518,0.1507,0.1554,0.1502,0.1627,0.1642,0.1655,0.1743,0.1766,0.1494,0.1493,0.1493,0.1492,0,0.1234,0.1259,0.1273,0.1306,0.1327,0.1352,0.1375,0.14,0.1412,0.1433,0.1501,0.1514,0.1559,0.1567,0.1557,0.1658,0.1665,0.163,0.1604,0.1678,0.1765,0.1788,0.1499,0.1498,0.1497,0.1496,0,0,0.1248,0.1289,0.1298,0.1321,0.1358,0.1378,0.1428,0.1479,0.1524,0.155,0.1624,0.1662,0.1674,0.1691,0.1696,0.1755,0.189,0.1735,0.1737,0.1828,0.2078,0.2043,0.2064,0.1878,0.1882,0.1885,0.211,0,0.128,0.1328,0.135,0.1405,0.1431,0.1458,0.1504,0.1551,0.1588,0.1655,0.1696,0.1757,0.1721,0.1755,0.1811,0.1868,0.1949,0.1834,0.1988,0.1994,0.1956,0.2088,0.1788,0.1959,0.2132,0.2136,0.2139,0,0.1316,0.1339,0.1395,0.1453,0.1471,0.1508,0.1589,0.1631,0.172,0.1756,0.183,0.1858,0.1962,0.1907,0.2069,0.1999,0.2053,0.2091,0.21,0.2056,0.2,0.1907,0.1994,0.2177,0.2174,0.2171,0.2168,0,0.1312,0.138,0.1423,0.1441,0.1501,0.1545,0.1585,0.1666,0.1722,0.1833,0.1895,0.1998,0.2073,0.215,0.2225,0.2161,0.2407,0.2324,0.2357,0.2356,0.2125,0.2097,0.2459,0.2459,0.2459,0.2458,0.2457,0,0.1322,0.1357,0.1426,0.1436,0.1502,0.1551,0.1635,0.1687,0.1796,0.1877,0.1947,0.2047,0.2136,0.2268,0.2307,0.2428,0.2483,0.2413,0.2424,0.2143,0.2116,0.2301,0.228,0.2466,0.2464,0.2463,0.2461,0,0.1281,0.1335,0.1381,0.1457,0.1494,0.1532,0.1648,0.1702,0.1811,0.1929,0.1975,0.2134,0.2309,0.2414,0.2575,0.2545,0.2649,0.2677,0.2358,0.2325,0.2529,0.2508,0.2736,0.2736,0.2737,0.2738,0.2738,0,0.1242,0.1268,0.137,0.1406,0.1438,0.1517,0.1572,0.1692,0.176,0.1976,0.2034,0.2256,0.2385,0.2631,0.2591,0.2689,0.2774,0.2509,0.2317,0.2577,0.2564,0.2542,0.2521,0.2054,0.2049,0.2045,0.2042,0,0.1156,0.1217,0.1246,0.133,0.1398,0.1473,0.1568,0.1634,0.1785,0.1909,0.2102,0.2236,0.2417,0.2389,0.2507,0.2495,0.2455,0.2428,0.2814,0.2023,0.195,0.1932,0.1931,0.2004,0.2008,0.2011,0.2013,0.2014,0.1089,0.1104,0.1175,0.1249,0.1322,0.1404,0.1451,0.1573,0.1696,0.1856,0.203,0.2135,0.2175,0.2178,0.2187,0.2148,0.2278,0.2175,0.2181,0.2193,0.2066,0.1997,0.2039,0.2043,0.2046,0.2049,0.2052,0,0.1005,0.1054,0.1096,0.1184,0.1221,0.1312,0.1428,0.1465,0.1587,0.1725,0.187,0.1708,0.1743,0.1844,0.1675,0.1691,0.1584,0.1693,0.1522,0.1558,0.1591,0.1427,0.1235,0.1233,0.1232,0.1231,0,0,0.0975,0.099,0.1026,0.1065,0.1132,0.1188,0.1248,0.1324,0.14,0.1428,0.1446,0.1609,0.1699,0.1417,0.1397,0.1315,0.1423,0.1254,0.1887,0.1714,0.1745,0.1829,0.1614,0,0,0,0,0]},{"header":{"parameterUnit":"m.s-1","parameterCategory":2,"la1":30.2991,"la2":30.254,"lo1":-89.0895,"lo2":-89.0444,"dy":0.0017,"dx":0.0017,"nx":28,"ny":28,"refTime":"2025-07-02T21:00:00:Z","depth":"2","parameterNumber":3,"parameterNumberName":"V-component_of_CURRENTS"},"data":[0,0,0,0,0,0,0,0,0,0,0,0,0,0,0,0,0,0,0,0,0,0,0,0,0,0,0,0,0,0,0,0,0,0,0,0,0,0,0,0,0,0,0,0,0,0,0,0,0,0,0,0,0,0,0,0,0,0,-0.0116,-0.0117,0,-0.0171,-0.0171,-0.0172,-0.0206,-0.0207,-0.0207,-0.0207,-0.03,-0.0302,-0.0305,0,0,0,0,0,0,0,0,0,0,0,0,0,-0.0008,-0.001,-0.0116,-0.0117,-0.0118,-0.0171,-0.0172,-0.0172,-0.0206,-0.0207,-0.0207,-0.0207,-0.0299,-0.0302,-0.0305,0,0,0,0,0,0,0,0,0,0,0,0,0,-0.0057,-0.0011,-0.0116,-0.0142,-0.0145,-0.0171,-0.0172,-0.0172,-0.0206,-0.0207,-0.0207,-0.0207,-0.0299,-0.0302,-0.0305,-0.0317,0,0,-0.0315,-0.0317,0,0,0,0,0,0,0,0,-0.0054,-0.0061,-0.0137,-0.014,-0.0144,-0.0183,-0.0168,-0.0223,-0.0206,-0.0182,-0.0207,-0.0208,-0.0265,-0.0271,-0.0278,-0.0322,-0.0326,-0.0316,-0.0318,-0.0319,-0.032,0,0,0,0,0,0,0,-0.0051,-0.0059,-0.0137,-0.0138,-0.0142,-0.0139,-0.0147,-0.0178,-0.022,-0.0184,-0.0187,-0.0194,-0.0267,-0.0275,-0.0281,-0.0327,-0.0315,-0.0318,-0.0321,-0.0322,-0.0406,-0.0406,0,0,0,0,0,0,-0.0048,-0.0056,-0.0135,-0.0139,-0.01,-0.0141,-0.015,-0.0169,-0.0219,-0.0227,-0.0194,-0.0196,-0.0269,-0.0277,-0.0285,-0.0304,-0.0319,-0.0322,-0.0324,-0.0406,-0.0406,-0.0406,0,0,0,0,0,0,-0.0046,-0.0055,-0.0133,-0.0098,-0.0108,-0.0143,-0.0164,-0.017,-0.0182,-0.0227,-0.0235,-0.02,-0.027,-0.028,-0.0311,-0.0308,-0.0324,-0.0327,-0.0405,-0.0406,-0.0406,-0.0341,0,0,0,0,0,0,-0.0042,-0.0054,-0.0063,-0.0099,-0.011,-0.0144,-0.0164,-0.0171,-0.0186,-0.0189,-0.0235,-0.0244,-0.0271,-0.0306,-0.0315,-0.0312,-0.0329,-0.0405,-0.0406,-0.0406,-0.0343,-0.0339,-0.0336,0,0,0,0,0,-0.0039,-0.0048,-0.0063,-0.0073,-0.0123,-0.0144,-0.0149,-0.0174,-0.0186,-0.0187,-0.0219,-0.0242,-0.0315,-0.0309,-0.0319,-0.0317,-0.0405,-0.0405,-0.0406,-0.0345,-0.034,-0.0336,0,0,0,0,0,0,0.0001,-0.0053,-0.0071,-0.0095,-0.0117,-0.015,-0.0154,-0.0172,-0.0198,-0.0202,-0.0244,-0.0255,-0.0281,-0.0311,-0.0303,-0.0345,-0.0365,-0.0367,-0.0315,-0.0311,-0.0308,-0.028,-0.0332,0,0,0,0,0,0.0003,-0.0021,-0.0063,-0.0079,-0.009,-0.0121,-0.0132,-0.0149,-0.0178,-0.019,-0.0222,-0.0259,-0.0291,-0.0309,-0.0341,-0.0363,-0.0386,-0.0371,-0.0367,-0.0364,-0.035,-0.0387,-0.0384,-0.0408,-0.0408,-0.0408,0,0,0.0015,-0.0017,-0.003,-0.0072,-0.0091,-0.01,-0.0129,-0.0143,-0.0149,-0.0197,-0.0213,-0.0247,-0.0294,-0.0316,-0.0331,-0.0341,-0.037,-0.0365,-0.0361,-0.0348,-0.0387,-0.0384,-0.0382,-0.0408,-0.0408,-0.0408,0,0,0.0036,-0.0002,-0.0012,-0.0029,-0.0059,-0.0081,-0.0084,-0.0118,-0.0132,-0.0152,-0.0189,-0.0216,-0.0266,-0.0293,-0.0315,-0.0313,-0.0349,-0.0331,-0.029,-0.0326,-0.0324,-0.0323,-0.0343,-0.0344,-0.033,-0.033,-0.033,0,0.0055,0.0031,-0.0012,-0.0019,-0.0028,-0.007,-0.0067,-0.0089,-0.0126,-0.0131,-0.015,-0.021,-0.0251,-0.0275,-0.0274,-0.0303,-0.0326,-0.0299,-0.032,-0.0319,-0.0318,-0.034,-0.0341,-0.0327,-0.0327,-0.0327,-0.0328,0,0.0067,0.0054,0.0051,0.0021,0.0009,0.0005,-0.003,-0.0042,-0.0065,-0.0085,-0.0108,-0.0159,-0.019,-0.0214,-0.0244,-0.026,-0.0278,-0.0308,-0.0323,-0.0311,-0.0335,-0.0338,-0.0322,-0.0323,-0.0324,-0.0325,0,0,0.0092,0.0065,0.0065,0.0066,0.0031,0.0025,0.0015,-0.0001,0.0004,-0.0037,-0.0031,-0.0089,-0.0109,-0.0136,-0.0179,-0.0212,-0.0231,-0.0252,-0.0255,-0.0258,-0.0299,-0.0278,-0.028,-0.0266,-0.0267,-0.0267,-0.0314,0,0.0118,0.012,0.0099,0.0111,0.0108,0.0078,0.0079,0.0059,0.0039,0.0033,-0.0018,-0.0032,-0.0084,-0.0092,-0.0132,-0.0201,-0.0236,-0.0214,-0.0321,-0.0324,-0.0297,-0.0282,-0.0301,-0.0342,-0.0317,-0.0318,-0.0318,0,0.013,0.0132,0.0146,0.0155,0.0154,0.0157,0.0157,0.0154,0.0131,0.0119,0.0096,0.0059,0.0018,-0.0033,-0.0135,-0.0118,-0.0198,-0.0259,-0.0263,-0.0265,-0.0308,-0.0353,-0.0348,-0.0323,-0.0323,-0.0323,-0.0322,0,0.0151,0.0165,0.018,0.0179,0.0178,0.019,0.0193,0.0181,0.0194,0.0177,0.019,0.0131,0.0113,0.0008,-0.0103,-0.0123,-0.0216,-0.0265,-0.0324,-0.0323,-0.0369,-0.0371,-0.0345,-0.0345,-0.0345,-0.0344,-0.0344,0,0.0162,0.0174,0.0196,0.0196,0.0234,0.0226,0.0261,0.0254,0.0268,0.0295,0.024,0.0257,0.0121,0.0056,-0.007,-0.0184,-0.0192,-0.0302,-0.0331,-0.0346,-0.0346,-0.0358,-0.0359,-0.0346,-0.0346,-0.0345,-0.0345,0,0.0151,0.0164,0.0186,0.0216,0.0234,0.0254,0.0304,0.0335,0.0342,0.0376,0.0379,0.0353,0.028,0.0145,-0.0011,-0.0122,-0.0249,-0.0297,-0.0289,-0.0316,-0.0345,-0.0342,-0.0366,-0.0365,-0.0365,-0.0365,-0.0365,0,0.014,0.0151,0.02,0.023,0.0241,0.0286,0.0325,0.0356,0.0397,0.0439,0.0464,0.043,0.0434,0.0241,0.0014,-0.0182,-0.0218,-0.0322,-0.0366,-0.0319,-0.0346,-0.0344,-0.0341,-0.041,-0.041,-0.041,-0.041,0,0.0132,0.0151,0.0174,0.0242,0.0291,0.0352,0.0413,0.0464,0.051,0.0567,0.0641,0.0663,0.048,0.0297,0.0038,-0.0111,-0.0288,-0.0329,-0.0295,-0.0386,-0.0361,-0.0386,-0.0383,-0.0411,-0.0411,-0.0411,-0.0411,-0.0411,0.0142,0.0164,0.0218,0.0282,0.0338,0.0432,0.0516,0.0606,0.0715,0.0862,0.0804,0.0833,0.0552,0.0239,0.0005,-0.0263,-0.0276,-0.0386,-0.0387,-0.0387,-0.0367,-0.0341,-0.0385,-0.0385,-0.0384,-0.0384,-0.0384,0,0.019,0.0223,0.0271,0.0366,0.0448,0.0471,0.0598,0.0726,0.0905,0.0972,0.1075,0.078,0.0582,0.0283,-0.0128,-0.035,-0.0383,-0.0401,-0.0422,-0.0421,-0.042,-0.0402,-0.0429,-0.0429,-0.0429,-0.0429,0,0,0.0228,0.0292,0.0322,0.0472,0.0538,0.0698,0.0795,0.0981,0.1063,0.1158,0.1127,0.1101,0.063,0.0331,0.0004,-0.0205,-0.0241,-0.0234,-0.0188,-0.0175,-0.0169,-0.0417,-0.0389,0,0,0,0,0]}],[{"header":{"parameterUnit":"m.s-1","parameterCategory":2,"la1":30.2991,"la2":30.254,"lo1":-89.0895,"lo2":-89.0444,"dy":0.0017,"dx":0.0017,"nx":28,"ny":28,"refTime":"2025-07-02T21:00:00:Z","depth":"4","parameterNumber":2,"parameterNumberName":"U-component_of_CURRENTS"},"data":[0,0,0,0,0,0,0,0,0,0,0,0,0,0,0,0,0,0,0,0,0,0,0,0,0,0,0,0,0,0,0,0,0,0,0,0,0,0,0,0,0,0,0,0,0,0,0,0,0,0,0,0,0,0,0,0,0,0,0.0523,0.0524,0,0.0588,0.0589,0.0589,0.0622,0.0622,0.0623,0.0623,0.0603,0.0603,0.0602,0,0,0,0,0,0,0,0,0,0,0,0,0,0.0425,0.0427,0.0523,0.0524,0.0526,0.0588,0.0589,0.0589,0.0622,0.0622,0.0623,0.0623,0.0604,0.0603,0.0602,0,0,0,0,0,0,0,0,0,0,0,0,0,0.0474,0.0427,0.0523,0.0552,0.0555,0.0588,0.0589,0.059,0.0622,0.0622,0.0623,0.0623,0.0604,0.0603,0.0602,0.0585,0,0,0.0598,0.0597,0,0,0,0,0,0,0,0,0.0471,0.0477,0.0546,0.055,0.0554,0.06,0.0547,0.0585,0.0622,0.0593,0.0623,0.0624,0.0596,0.0596,0.0604,0.0584,0.0583,0.0598,0.0597,0.0596,0.0596,0,0,0,0,0,0,0,0.0468,0.0474,0.0546,0.0548,0.0552,0.0561,0.0568,0.0555,0.0587,0.0596,0.0599,0.0611,0.0597,0.0605,0.0603,0.0583,0.0598,0.0597,0.0596,0.0595,0.0568,0.0568,0,0,0,0,0,0,0.0466,0.0471,0.0544,0.0548,0.0516,0.0562,0.057,0.0582,0.0589,0.0593,0.0611,0.0613,0.0607,0.0605,0.0602,0.0616,0.0597,0.0595,0.0595,0.0568,0.0568,0.0568,0,0,0,0,0,0,0.0463,0.0472,0.0541,0.0514,0.0523,0.0564,0.0577,0.0583,0.0619,0.0602,0.0603,0.0643,0.0607,0.0604,0.0605,0.0614,0.0595,0.0594,0.0568,0.0568,0.0568,0.0621,0,0,0,0,0,0,0.046,0.047,0.049,0.0513,0.0525,0.0566,0.0577,0.0585,0.0625,0.0629,0.063,0.0627,0.0607,0.0607,0.0604,0.0612,0.0593,0.0568,0.0568,0.0568,0.062,0.0623,0.0626,0,0,0,0,0,0.0456,0.0473,0.049,0.05,0.0547,0.0567,0.0573,0.0601,0.0627,0.0636,0.0641,0.0628,0.0604,0.0606,0.0603,0.0611,0.0568,0.0568,0.0568,0.0618,0.0623,0.0626,0,0,0,0,0,0,0.0437,0.0479,0.0498,0.0527,0.0551,0.0574,0.0597,0.0619,0.0634,0.065,0.0633,0.0629,0.063,0.0612,0.0615,0.06,0.0582,0.0582,0.0622,0.0625,0.0629,0.0649,0.0592,0,0,0,0,0,0.0444,0.047,0.0503,0.0527,0.0546,0.058,0.06,0.0621,0.0635,0.0646,0.0646,0.064,0.0622,0.0621,0.0602,0.0601,0.06,0.0601,0.0604,0.0607,0.0619,0.0622,0.0628,0.0568,0.0568,0.0568,0,0,0.0442,0.0471,0.0486,0.0526,0.0554,0.0579,0.0593,0.0632,0.0656,0.0638,0.0671,0.0654,0.0624,0.0618,0.0616,0.0609,0.0624,0.0607,0.061,0.0621,0.0623,0.0629,0.0634,0.0568,0.0568,0.0568,0,0,0.044,0.0482,0.0501,0.0529,0.0579,0.0598,0.0616,0.0655,0.068,0.07,0.069,0.0683,0.0669,0.0647,0.0633,0.0644,0.064,0.0638,0.0676,0.0678,0.0684,0.0689,0.0705,0.0711,0.0642,0.0642,0.0642,0,0.0438,0.047,0.0507,0.0536,0.0566,0.061,0.0637,0.0664,0.0697,0.0717,0.0715,0.0705,0.0679,0.067,0.0671,0.0653,0.0664,0.0666,0.0685,0.069,0.0694,0.0709,0.0715,0.0645,0.0644,0.0644,0.0644,0,0.0447,0.0484,0.0501,0.0553,0.0585,0.0619,0.0664,0.0702,0.0738,0.0758,0.0775,0.0744,0.074,0.0722,0.0701,0.0713,0.0715,0.0689,0.0681,0.0704,0.0718,0.0723,0.0648,0.0647,0.0647,0.0646,0,0,0.0405,0.049,0.0496,0.0535,0.0605,0.0632,0.0683,0.0732,0.0779,0.0796,0.0835,0.0801,0.0807,0.079,0.0764,0.0762,0.0793,0.0748,0.0747,0.0777,0.0823,0.0758,0.0757,0.0781,0.0782,0.0782,0.0826,0,0.0401,0.0453,0.0498,0.0556,0.0592,0.0659,0.0702,0.0758,0.0801,0.0848,0.0842,0.0859,0.0827,0.0832,0.0827,0.0801,0.0808,0.0785,0.0787,0.0787,0.0736,0.0761,0.0785,0.083,0.0831,0.0832,0.0832,0,0.0388,0.0431,0.0484,0.0578,0.0602,0.0646,0.0743,0.0788,0.0861,0.0895,0.0924,0.0931,0.0939,0.0903,0.0897,0.0891,0.087,0.0846,0.0846,0.0772,0.0731,0.0798,0.0841,0.084,0.084,0.0839,0.0839,0,0.0336,0.0421,0.0468,0.0501,0.0607,0.0657,0.0717,0.0803,0.0859,0.0935,0.0983,0.0993,0.1016,0.0989,0.0945,0.0938,0.0931,0.091,0.0834,0.083,0.0853,0.0847,0.0909,0.0909,0.0908,0.0908,0.0908,0,0.0308,0.0349,0.0459,0.0488,0.0563,0.0646,0.0731,0.0798,0.0893,0.0938,0.101,0.1013,0.1043,0.1038,0.0982,0.0924,0.0964,0.0853,0.0836,0.0874,0.087,0.0858,0.0851,0.091,0.091,0.0909,0.0909,0,0.0242,0.0311,0.0375,0.0494,0.0543,0.0598,0.0745,0.08,0.0907,0.097,0.1001,0.1067,0.1052,0.1064,0.1022,0.0977,0.0913,0.0876,0.0937,0.0921,0.0811,0.0807,0.0827,0.0825,0.0824,0.0822,0.0821,0,0.0214,0.0238,0.0367,0.042,0.0483,0.0586,0.0656,0.0785,0.0829,0.0944,0.0945,0.101,0.1024,0.095,0.0934,0.0891,0.0856,0.0864,0.0827,0.0821,0.0803,0.0801,0.0799,0.0819,0.0818,0.0818,0.0817,0,0.0158,0.0206,0.0263,0.037,0.0457,0.0546,0.0643,0.0658,0.0775,0.0893,0.089,0.0905,0.0904,0.0874,0.0884,0.0813,0.0884,0.0846,0.0849,0.0814,0.0811,0.0794,0.0793,0.0812,0.0813,0.0813,0.0813,0,0.0118,0.0142,0.0228,0.0322,0.0427,0.048,0.0529,0.0589,0.0657,0.0782,0.0736,0.079,0.0854,0.0826,0.0772,0.0776,0.0759,0.0745,0.0753,0.076,0.0713,0.0697,0.0659,0,0,0,0,0,0.0083,0.0114,0.0185,0.0283,0.0381,0.0455,0.0523,0.0561,0.0638,0.063,0.0705,0.0683,0.0691,0.0682,0.0669,0.0707,0.0739,0.0687,0.0722,0.078,0.0787,0.0735,0,0,0,0,0,0,0.0064,0.0117,0.0159,0.0245,0.031,0.0411,0.0446,0.0488,0.048,0.056,0.0551,0.0668,0.0655,0.0712,0.0669,0.0675,0.0686,0.0732,0.0731,0.0776,0.0782,0.0788,0.0737,0,0,0,0,0]},{"header":{"parameterUnit":"m.s-1","parameterCategory":2,"la1":30.2991,"la2":30.254,"lo1":-89.0895,"lo2":-89.0444,"dy":0.0017,"dx":0.0017,"nx":28,"ny":28,"refTime":"2025-07-02T21:00:00:Z","depth":"4","parameterNumber":3,"parameterNumberName":"V-component_of_CURRENTS"},"data":[0,0,0,0,0,0,0,0,0,0,0,0,0,0,0,0,0,0,0,0,0,0,0,0,0,0,0,0,0,0,0,0,0,0,0,0,0,0,0,0,0,0,0,0,0,0,0,0,0,0,0,0,0,0,0,0,0,0,0.0103,0.0103,0,0.0042,0.0041,0.004,-0.0023,-0.0023,-0.0024,-0.0025,-0.0103,-0.0105,-0.0106,0,0,0,0,0,0,0,0,0,0,0,0,0,0.0112,0.0112,0.0103,0.0103,0.0102,0.0042,0.0041,0.004,-0.0023,-0.0023,-0.0024,-0.0025,-0.0103,-0.0104,-0.0106,0,0,0,0,0,0,0,0,0,0,0,0,0,0.0083,0.0113,0.0104,0.0066,0.0062,0.0042,0.0041,0.004,-0.0023,-0.0023,-0.0024,-0.0025,-0.0102,-0.0104,-0.0107,-0.0103,0,0,-0.0114,-0.0115,0,0,0,0,0,0,0,0,0.0085,0.0082,0.0072,0.0069,0.0064,0.0019,0.0015,-0.0008,-0.0022,0.0007,-0.0025,-0.0026,-0.0061,-0.0067,-0.0081,-0.0107,-0.011,-0.0114,-0.0115,-0.0116,-0.0117,0,0,0,0,0,0,0,0.0087,0.0084,0.0076,0.0072,0.0067,0.0034,0.0029,0.001,-0.0024,0.0004,0.0,-0.0002,-0.0064,-0.0078,-0.0083,-0.0111,-0.0114,-0.0116,-0.0117,-0.0118,-0.021,-0.0211,0,0,0,0,0,0,0.0104,0.0087,0.0078,0.0075,0.0076,0.0035,0.0029,0.0032,-0.0024,-0.0032,-0.0001,-0.0005,-0.0074,-0.008,-0.0086,-0.0138,-0.0116,-0.0118,-0.012,-0.0209,-0.021,-0.0211,0,0,0,0,0,0,0.0105,0.0104,0.0081,0.0081,0.0076,0.0036,0.004,0.0031,-0.0009,-0.0027,-0.0037,-0.0036,-0.0075,-0.0083,-0.0126,-0.014,-0.0119,-0.0122,-0.0208,-0.0209,-0.0211,-0.0209,0,0,0,0,0,0,0.0105,0.0105,0.0098,0.0083,0.0077,0.0054,0.0041,0.0031,-0.0006,-0.0012,-0.0059,-0.0066,-0.0076,-0.0122,-0.0128,-0.0143,-0.0123,-0.0206,-0.0208,-0.021,-0.0208,-0.021,-0.0213,0,0,0,0,0,0.0106,0.0101,0.0098,0.0096,0.0073,0.0054,0.0046,0.0013,-0.0007,-0.0027,-0.0061,-0.0066,-0.0139,-0.0125,-0.0132,-0.0147,-0.0205,-0.0208,-0.021,-0.0207,-0.021,-0.0213,0,0,0,0,0,0,0.0093,0.0095,0.009,0.0084,0.0065,0.0044,0.0019,0.0,-0.0043,-0.006,-0.0079,-0.0088,-0.0132,-0.0142,-0.0126,-0.0181,-0.0173,-0.0177,-0.0169,-0.0172,-0.0174,-0.0166,-0.0125,0,0,0,0,0,0.0093,0.0088,0.0084,0.0071,0.0065,0.0037,0.0019,-0.0003,-0.0033,-0.0055,-0.0087,-0.012,-0.0142,-0.016,-0.0186,-0.0214,-0.0221,-0.023,-0.0232,-0.0234,-0.0233,-0.0258,-0.0262,-0.0219,-0.0219,-0.0219,0,0,0.008,0.0082,0.0075,0.0068,0.0048,0.0039,0.0022,-0.0014,-0.0033,-0.0055,-0.0109,-0.0135,-0.0153,-0.0187,-0.0207,-0.0199,-0.0251,-0.0237,-0.0238,-0.0236,-0.0261,-0.0265,-0.0268,-0.0221,-0.022,-0.022,0,0,0.0063,0.0058,0.0051,0.0042,0.0019,0.0011,-0.0001,-0.0036,-0.0067,-0.0108,-0.0129,-0.0164,-0.0207,-0.0219,-0.0227,-0.026,-0.0266,-0.0273,-0.0274,-0.0299,-0.0302,-0.0305,-0.0317,-0.0321,-0.027,-0.027,-0.027,0,0.0043,0.005,0.0041,0.0035,0.003,0.0001,-0.0007,-0.0037,-0.0088,-0.0109,-0.013,-0.0196,-0.0218,-0.0238,-0.0251,-0.0264,-0.0276,-0.0257,-0.03,-0.0303,-0.0306,-0.0318,-0.0322,-0.027,-0.027,-0.027,-0.027,0,0.0032,0.0031,0.0023,0.002,0.0008,-0.001,-0.003,-0.0066,-0.0103,-0.0127,-0.0181,-0.0215,-0.0246,-0.0262,-0.0266,-0.0296,-0.0297,-0.0301,-0.0287,-0.031,-0.0321,-0.0326,-0.027,-0.027,-0.027,-0.027,0,0,0.0009,0.0016,0.001,0.0021,0.0,-0.0004,-0.0039,-0.0063,-0.0084,-0.0148,-0.0175,-0.0225,-0.0249,-0.0261,-0.0277,-0.0301,-0.0334,-0.0311,-0.0312,-0.0313,-0.0384,-0.0355,-0.0358,-0.0347,-0.0348,-0.0348,-0.0381,0,0.0002,0.0013,0.0007,0.0008,0.0023,-0.0007,-0.0026,-0.006,-0.0098,-0.0136,-0.0185,-0.0216,-0.0245,-0.0256,-0.0291,-0.0325,-0.0348,-0.0325,-0.037,-0.0371,-0.0335,-0.0363,-0.0351,-0.0384,-0.0386,-0.0386,-0.0387,0,0.0006,0.0019,0.0028,0.004,0.0037,0.0019,-0.0002,-0.0025,-0.0081,-0.0111,-0.0159,-0.0193,-0.0241,-0.0259,-0.0335,-0.0321,-0.0352,-0.038,-0.0382,-0.0358,-0.0352,-0.036,-0.0395,-0.0395,-0.0394,-0.0393,-0.0393,0,0.0045,0.0039,0.0055,0.0056,0.0053,0.0032,0.0014,-0.0029,-0.0031,-0.0095,-0.01,-0.0177,-0.02,-0.0269,-0.0333,-0.0336,-0.0411,-0.0419,-0.0421,-0.0419,-0.0433,-0.043,-0.0466,-0.0466,-0.0466,-0.0466,-0.0466,0,0.008,0.0095,0.0066,0.0084,0.0087,0.0059,0.0053,0.0022,-0.0009,-0.0005,-0.0082,-0.0096,-0.0204,-0.0258,-0.0328,-0.0389,-0.0408,-0.0425,-0.0429,-0.0432,-0.0429,-0.0436,-0.0432,-0.0467,-0.0467,-0.0467,-0.0466,0,0.0151,0.0132,0.016,0.0134,0.0118,0.0121,0.0102,0.0106,0.0061,0.0065,0.0055,-0.003,-0.0116,-0.0209,-0.0316,-0.036,-0.0432,-0.0442,-0.0431,-0.0433,-0.0425,-0.0421,-0.0457,-0.0456,-0.0455,-0.0455,-0.0454,0,0.0195,0.0213,0.0205,0.021,0.0195,0.0185,0.0185,0.0148,0.0158,0.0106,0.0117,0.0033,-0.0031,-0.017,-0.028,-0.0404,-0.0414,-0.044,-0.0447,-0.0426,-0.0426,-0.0423,-0.042,-0.0454,-0.0453,-0.0453,-0.0453,0,0.0272,0.0261,0.0281,0.029,0.0284,0.0304,0.0289,0.0286,0.0245,0.0242,0.0172,0.0077,-0.0017,-0.0158,-0.0243,-0.0336,-0.0426,-0.0434,-0.0436,-0.0444,-0.0423,-0.0423,-0.042,-0.0451,-0.0452,-0.0452,-0.0452,0,0.0304,0.0333,0.0334,0.0337,0.037,0.0366,0.0354,0.0329,0.0321,0.0252,0.0229,0.0093,0.0021,-0.0122,-0.0212,-0.0293,-0.0315,-0.0332,-0.034,-0.0343,-0.0303,-0.0259,-0.0243,0,0,0,0,0,0.0315,0.0326,0.0361,0.0356,0.0411,0.0416,0.0405,0.0384,0.0337,0.031,0.0264,0.017,0.0006,-0.0083,-0.0159,-0.0206,-0.0331,-0.0296,-0.0354,-0.0441,-0.0443,-0.0413,0,0,0,0,0,0,0.0306,0.0343,0.0357,0.0378,0.0391,0.0431,0.0423,0.039,0.0358,0.0305,0.0212,0.0188,0.0021,0.0066,-0.0145,-0.0173,-0.0214,-0.0366,-0.0366,-0.044,-0.0442,-0.0443,-0.0414,0,0,0,0,0]}]]